Location: Ferchesar
(52.6477°N, 12.4298°E)
Time: 07:18:36
(UTC+02:00)

Transit 4A - Pass Details

Date: 04 March 2021
Orbit: 869 x 976 km, 66.8° (Epoch: 12 April)

Event Time Altitude Azimuth Distance (km) Brightness Sun altitude
Rises 15:57:35 0° 310° (NW) 3,626 11.2 15.6°
Reaches altitude 10° 16:00:39 10° 323° (NW) 2,661 10.4 15.2°
Maximum altitude 16:05:44 26° 18° (NNE) 1,747 9.1 14.6°
Drops below altitude 10° 16:10:41 10° 74° (ENE) 2,594 9.7 14.0°
Sets 16:13:37 0° 87° (E) 3,515 10.4 13.6°
